Theta_e
331 330 331 331 332 333 332 332 332 331 331 330 330 329 327 326 326 326 327 326 326 327 327 327 328 327 326 327 327 327 327 328 328 329 329 328 328 324 321 324 327 328 326 325 324 323 323 322 322 322 322 320 320 319 319 318 318 318 317 318 318 317 317 317 316 316 316 316 316 315 315 315 314 314 314 313 313 312 312 312 313 312 310 310 310
332 332 330 330 331 332 331 331 330 331 330 329 329 328 326 325 326 326 326 326 326 326 326 326 326 327 326 326 326 326 327 327 327 327 328 328 327 326 318 320 324 328 328 325 326 324 324 322 322 321 321 322 321 322 320 319 319 319 317 318 318 317 317 316 316 316 316 315 315 315 315 315 314 314 313 313 313 312 312 311 310 311 312 310 309
332 332 331 330 331 331 330 330 330 330 329 328 329 328 326 325 325 325 325 325 325 325 325 324 326 326 326 326 326 326 326 327 326 327 327 327 327 327 323 317 321 323 326 327 325 324 324 324 322 322 321 322 320 321 322 319 319 318 318 319 318 318 317 317 316 316 316 315 315 315 315 314 314 313 313 313 312 312 311 311 310 308 310 309 308
333 332 332 331 330 330 330 330 330 329 328 328 328 327 326 326 326 326 326 326 325 325 325 323 323 325 326 326 326 325 325 326 326 326 326 326 326 326 324 323 317 319 321 327 325 324 325 324 323 322 322 322 322 321 320 319 319 318 318 319 319 318 317 317 316 316 316 315 315 315 314 314 314 313 313 312 312 311 311 310 310 309 308 309 309
333 333 332 331 330 330 329 330 330 329 328 328 328 327 325 324 324 325 324 324 323 323 324 323 322 323 325 325 325 324 324 324 324 324 325 325 325 325 325 324 322 316 317 319 326 326 325 325 324 323 323 323 323 321 320 320 319 319 319 319 319 319 318 317 316 316 316 316 315 315 314 314 314 313 313 312 312 311 310 310 310 309 308 308 308
333 333 332 331 330 330 329 329 330 329 328 327 326 325 323 323 322 322 320 321 321 321 321 321 321 322 323 323 324 324 324 323 323 323 324 324 324 324 324 324 322 322 321 318 319 322 326 326 325 325 323 323 323 323 321 321 320 319 319 320 320 320 319 318 317 316 316 316 315 315 314 314 313 313 313 312 311 311 311 310 309 309 308 308 308
333 332 332 331 330 329 329 329 330 329 325 325 324 324 323 322 322 321 321 320 320 321 321 321 321 321 321 322 321 322 322 321 322 321 320 321 322 323 322 322 323 322 322 321 314 314 320 325 327 326 324 323 323 322 322 322 321 321 320 320 320 320 319 318 317 317 316 315 315 314 314 313 313 313 312 312 311 311 310 310 309 309 309 308 308
333 332 331 331 331 330 330 330 331 328 325 323 323 322 323 323 322 321 319 320 320 320 321 320 320 321 321 321 320 319 318 318 317 316 318 318 318 318 317 317 319 321 319 321 320 317 315 318 323 325 324 323 323 323 323 323 322 322 321 321 321 321 321 320 319 318 318 317 315 314 313 313 313 313 313 312 312 311 310 310 309 309 308 308 308
334 333 332 332 331 330 330 330 329 326 323 322 321 322 322 322 321 321 321 320 320 319 320 319 319 319 320 318 317 314 314 315 315 316 316 313 314 314 314 315 316 311 317 319 321 321 315 315 318 321 322 324 323 323 322 323 323 323 323 322 322 322 321 321 320 319 318 317 316 315 315 314 313 313 312 312 311 311 311 310 309 309 308 309 308
335 335 334 333 332 331 330 330 329 328 326 324 322 322 322 322 320 321 320 319 319 319 318 319 319 317 314 312 312 310 311 312 313 311 310 311 312 312 312 313 313 314 315 316 317 318 319 316 314 315 314 318 323 323 323 323 322 323 324 324 323 322 322 321 320 319 318 318 317 317 315 316 313 313 313 312 311 311 311 310 310 309 308 309 309
335 335 333 332 332 331 331 331 330 329 327 326 322 321 321 320 319 319 320 319 319 320 319 318 315 312 311 310 308 308 309 308 307 307 307 308 308 309 311 311 311 311 312 313 314 314 315 317 316 315 315 314 321 323 323 323 322 322 324 324 324 323 322 321 321 320 318 317 317 316 316 315 314 313 312 312 312 312 311 310 310 310 310 309 309
334 335 335 333 332 332 331 331 330 329 327 325 321 319 318 318 318 319 319 319 319 318 316 313 311 309 308 307 307 307 306 306 305 306 305 305 305 306 307 309 309 310 310 310 310 311 311 312 314 316 315 315 315 318 322 322 322 322 323 323 325 324 323 321 321 320 319 318 317 317 316 315 314 314 314 312 312 312 311 311 311 310 310 310 309
333 334 334 330 332 331 331 329 329 328 326 325 324 323 320 319 318 318 318 316 314 315 314 312 310 308 308 306 307 306 305 305 304 304 304 304 304 305 305 305 306 306 307 308 307 307 308 309 311 313 316 316 315 313 315 318 320 323 322 322 324 325 324 323 323 321 320 319 318 317 317 316 315 314 314 313 313 312 312 312 312 311 311 310 310
335 334 333 333 331 330 331 331 331 328 327 327 327 321 320 318 318 316 316 314 314 315 313 310 308 307 308 308 308 309 307 305 304 304 304 304 304 304 304 304 304 305 306 306 306 306 306 307 308 310 311 314 316 315 314 314 315 321 323 323 324 325 325 324 323 322 321 319 319 318 317 316 316 315 314 314 313 313 313 312 312 311 311 311 311
336 333 332 332 331 330 330 331 331 328 326 325 324 321 318 316 316 315 313 313 313 316 311 311 309 309 308 304 304 306 309 305 306 306 305 305 304 303 304 304 304 305 305 305 305 305 306 306 306 308 309 310 311 313 314 310 311 311 318 321 322 325 325 324 324 323 321 320 319 319 317 317 316 315 315 314 314 314 313 313 312 311 311 310 310
336 335 333 332 332 330 329 328 327 325 324 322 321 319 319 317 315 315 315 312 311 311 311 310 310 308 304 303 303 301 301 306 309 309 307 306 305 305 305 304 305 305 305 304 305 306 306 306 306 306 307 307 308 309 311 313 311 308 308 311 314 321 324 325 325 324 323 322 320 319 319 317 316 316 316 315 315 315 314 313 312 311 311 311 310
335 336 333 332 332 331 330 330 328 327 324 322 321 321 321 320 316 314 314 313 311 310 308 308 308 311 310 303 301 299 301 306 307 309 310 306 306 306 306 305 305 304 304 304 305 306 305 306 306 306 305 305 305 306 307 309 311 310 309 303 306 313 320 324 324 324 324 323 321 319 319 318 317 317 316 316 315 315 314 314 312 312 311 310 310
335 335 335 333 334 333 331 329 327 326 324 322 323 323 322 320 317 316 316 314 313 311 309 306 307 308 310 312 312 309 308 306 305 304 309 310 309 307 306 306 306 305 304 304 305 305 304 304 306 306 305 304 304 304 305 306 306 309 311 312 310 311 313 318 322 322 323 324 322 321 320 318 318 316 316 316 316 315 314 314 313 312 311 311 310
333 334 334 335 333 331 329 328 327 326 322 323 321 322 323 321 319 316 315 315 313 310 310 308 305 306 308 309 309 309 308 306 304 306 303 306 306 307 307 307 306 305 305 305 305 305 305 304 304 306 305 304 304 304 304 305 306 307 310 313 317 315 314 315 317 320 322 322 323 322 321 320 319 318 317 316 317 316 314 313 313 312 312 311 311
329 330 331 333 332 332 330 329 328 328 326 324 323 323 324 324 320 317 315 314 313 311 310 311 304 305 305 305 306 307 309 307 306 304 303 300 303 307 306 306 307 305 305 305 305 304 304 304 304 304 304 303 303 304 304 304 305 306 306 311 316 317 317 316 315 315 318 319 321 322 322 321 320 319 318 317 317 316 315 314 313 312 312 311 310
328 328 329 329 328 328 329 329 329 329 329 327 325 324 322 321 319 316 314 314 312 312 311 312 309 308 305 304 304 305 305 306 306 305 300 298 299 301 303 307 304 305 305 305 305 305 304 304 304 304 303 303 303 303 303 304 304 304 305 309 313 316 318 318 316 314 314 315 318 319 321 322 321 320 319 318 317 316 316 314 313 313 312 311 311
325 326 326 327 327 327 327 327 326 327 324 326 324 323 323 322 320 318 315 312 312 312 311 312 312 311 311 308 304 303 303 303 304 303 302 302 298 300 303 303 302 305 303 302 302 303 304 304 304 303 303 303 303 303 303 303 303 303 303 304 308 312 315 316 316 315 314 313 314 316 318 319 321 321 321 320 318 316 316 315 314 314 313 311 310
323 323 324 325 325 325 324 324 324 323 320 321 321 323 324 323 322 320 316 314 313 312 311 311 312 312 311 310 308 306 304 303 305 305 303 300 299 299 301 304 303 302 305 306 304 303 302 302 302 303 303 303 303 302 302 302 301 301 300 303 305 307 310 313 315 315 315 315 314 314 315 316 318 318 319 319 322 320 316 315 315 314 313 311 311
320 320 320 321 322 322 322 322 322 322 322 322 321 321 322 321 320 319 317 316 314 312 312 311 310 311 311 310 308 308 308 307 308 307 305 303 303 302 304 306 305 305 307 307 307 303 301 301 301 302 303 303 302 302 302 302 301 299 299 300 303 306 309 311 313 312 314 314 315 315 315 315 315 316 317 317 318 319 320 317 315 314 313 312 311
317 317 318 319 319 318 318 318 319 320 320 321 321 321 321 320 319 318 317 316 315 313 312 312 311 309 309 310 310 309 308 309 308 307 307 308 306 303 305 306 302 303 306 307 306 303 301 301 301 301 301 301 301 301 301 301 301 299 298 299 301 303 304 307 310 311 311 312 314 315 316 315 315 315 316 315 316 316 318 319 316 316 313 312 311
318 318 319 319 318 318 317 317 318 318 318 318 319 319 319 319 320 319 318 318 317 314 313 312 312 311 311 309 309 309 309 310 309 309 308 307 305 304 303 302 301 302 305 304 304 300 302 301 302 301 300 300 300 300 300 300 300 298 297 298 300 301 302 303 306 307 309 311 312 313 313 313 315 314 314 316 316 315 316 316 316 315 314 313 312
318 319 319 318 318 317 317 316 316 316 317 317 317 317 317 317 317 317 318 319 317 315 313 312 312 312 311 310 309 310 310 311 310 309 309 308 307 305 303 300 300 302 301 304 304 303 304 306 301 301 301 300 300 299 299 300 299 298 296 298 298 298 300 303 305 306 307 308 309 311 311 312 312 314 313 314 315 315 315 315 315 314 314 313 312
317 316 317 316 316 315 316 315 315 315 315 315 315 315 315 315 315 315 315 317 317 316 314 313 312 312 312 311 310 310 310 311 310 309 309 308 307 306 305 302 299 296 300 300 301 302 306 304 303 301 301 300 300 300 298 297 299 297 295 297 298 298 299 301 304 306 306 306 307 308 310 311 312 312 313 312 312 313 313 313 313 311 310 308 307
314 314 314 314 314 314 313 314 314 314 314 314 314 314 314 313 313 313 313 314 314 314 314 313 313 313 312 311 310 310 310 310 309 309 308 307 307 306 306 304 303 298 296 296 298 299 303 304 301 303 301 302 300 300 299 298 297 296 297 297 297 297 298 300 303 305 306 306 306 307 307 309 310 311 310 310 311 311 312 311 310 309 310 308 308
312 313 312 312 312 310 312 312 312 313 313 313 313 312 312 311 312 312 312 313 312 312 313 312 312 311 311 310 310 309 310 309 309 309 308 308 306 306 305 305 304 300 299 296 297 301 301 304 303 302 300 300 300 299 299 298 296 296 296 296 296 296 297 299 301 303 303 305 305 306 308 309 309 309 309 308 309 310 311 310 310 309 309 308 307
311 311 311 310 310 310 310 310 310 311 311 311 311 311 311 310 310 310 311 311 310 309 310 311 311 310 309 308 309 309 309 309 309 308 308 307 306 306 305 304 303 302 300 298 294 299 303 300 303 303 301 299 299 299 299 298 297 296 296 296 296 295 294 296 296 299 301 302 303 304 307 308 309 309 308 307 309 309 309 309 307 307 306 306 306
309 308 308 308 308 308 308 309 308 309 309 309 310 309 309 309 309 308 309 309 308 308 308 309 309 309 308 307 307 307 308 307 307 307 307 307 307 306 305 305 304 303 302 299 296 296 302 302 303 304 304 301 298 296 295 296 296 293 295 295 295 293 293 293 294 296 298 300 301 303 305 306 307 308 308 307 307 306 306 307 306 305 304 303 303
306 306 306 307 307 307 306 306 307 307 307 307 308 308 307 307 307 307 307 307 306 306 306 306 307 307 306 305 305 306 307 305 305 304 304 304 303 304 303 302 301 300 299 298 296 296 300 303 302 302 304 303 298 294 294 294 294 294 293 294 293 292 292 291 291 292 295 297 298 299 301 303 305 307 307 305 303 304 304 304 304 303 303 302 302
305 304 304 305 305 305 305 305 305 305 305 305 306 306 305 305 305 305 305 304 304 304 305 304 304 304 304 303 303 303 304 303 303 302 302 301 299 299 299 298 299 298 299 297 297 296 295 300 300 301 301 298 297 297 294 295 294 293 292 291 291 290 290 290 290 290 292 294 296 297 299 301 303 305 306 304 304 303 304 304 302 302 301 301 299
303 303 303 303 303 303 303 303 303 303 303 303 303 303 303 303 302 302 303 302 302 302 302 302 302 302 301 300 300 301 302 301 300 300 300 299 299 298 298 298 297 298 298 298 297 295 295 297 300 299 300 300 298 298 297 295 295 294 292 291 290 290 289 289 288 289 291 292 294 296 297 298 299 302 304 304 303 302 301 302 302 301 300 299 297
301 302 302 302 301 301 301 301 301 301 301 301 300 300 300 300 300 300 301 301 301 301 301 301 301 300 299 298 299 299 299 298 298 298 298 298 298 297 297 297 297 297 297 297 297 296 296 295 297 298 299 299 300 296 293 291 290 290 290 291 290 289 289 288 288 287 289 291 293 293 295 296 297 298 301 303 303 301 301 301 301 299 297 296 296
300 300 300 300 300 300 301 300 301 300 301 300 300 300 301 301 300 300 300 300 300 300 300 300 297 299 298 298 298 298 297 297 297 297 297 297 297 297 297 297 297 297 297 297 296 296 295 294 295 298 298 298 299 298 293 290 290 288 288 287 288 288 287 287 287 287 288 290 291 292 292 294 295 296 299 301 301 300 300 299 299 297 296 295 294
298 299 299 298 299 298 299 299 299 300 300 300 299 299 300 300 300 300 300 300 299 299 299 298 298 298 298 298 298 298 297 296 296 297 297 297 297 296 296 296 296 296 296 296 295 295 295 295 295 295 297 296 296 297 294 290 290 289 288 287 286 286 285 285 286 286 286 286 286 287 290 291 293 294 296 298 300 300 299 298 296 296 295 294 293
297 297 297 297 298 298 298 298 298 298 299 299 299 300 300 300 300 299 299 299 298 298 298 298 298 298 298 298 298 298 297 297 297 296 296 296 297 296 297 296 296 296 295 295 295 294 294 294 294 294 294 295 295 294 293 289 289 290 289 288 286 285 285 285 285 286 285 285 287 288 288 289 290 291 293 296 297 298 298 297 296 295 293 293 293
295 295 295 295 296 296 297 297 298 298 297 297 297 298 298 298 298 298 298 297 297 297 297 297 297 297 297 297 298 298 298 298 298 297 297 296 296 295 296 296 296 295 295 294 294 294 293 293 293 293 294 294 294 295 291 286 286 286 287 287 287 287 285 284 285 285 285 284 283 284 287 288 289 290 292 294 295 296 297 295 294 293 292 292 293
295 295 295 295 295 295 295 296 296 297 298 298 298 298 297 296 296 295 296 296 296 296 296 296 296 296 297 297 297 297 296 293 293 293 294 295 296 295 296 296 295 295 294 294 293 293 293 292 292 293 293 292 293 293 291 288 287 288 288 286 286 287 287 284 284 285 284 283 283 283 284 285 286 287 289 289 291 293 293 292 291 291 292 293 293
293 293 293 293 294 294 294 295 295 297 297 298 295 292 293 294 294 294 294 294 294 294 294 294 295 295 296 296 297 292 291 291 291 291 292 292 292 294 295 295 294 293 292 292 292 292 292 291 291 291 291 291 292 293 292 292 291 288 287 286 284 286 285 284 283 283 284 283 282 281 283 286 286 286 288 288 290 291 290 290 289 290 291 292 292
291 292 292 292 293 293 293 293 293 294 295 296 292 294 294 293 293 292 292 293 293 294 294 294 294 294 295 296 296 294 292 291 291 290 292 292 292 292 292 292 292 293 291 291 291 291 291 291 291 291 291 291 292 293 292 292 291 288 287 286 285 285 284 282 281 283 284 282 282 281 282 286 287 286 287 287 288 288 288 288 290 291 291 292 292
290 291 291 291 292 292 293 292 292 293 293 291 293 293 293 293 292 291 292 292 292 292 293 293 293 294 294 294 295 296 295 295 295 295 293 292 292 292 292 292 292 292 292 291 290 290 290 290 290 290 291 290 291 292 292 292 291 288 286 286 285 285 284 283 283 282 284 283 281 281 280 285 286 286 285 286 287 286 287 288 291 291 291 291 291
290 290 290 290 290 290 291 291 290 291 291 291 292 292 292 292 292 291 291 291 291 291 292 292 292 293 293 293 293 294 295 291 291 293 294 294 292 292 291 291 291 292 293 293 293 291 291 290 290 290 291 291 291 291 293 292 291 289 288 286 285 285 285 284 284 284 284 283 281 280 280 282 285 284 284 285 286 285 286 289 291 291 291 291 291
288 288 288 288 289 289 289 289 289 289 290 290 291 291 291 291 292 291 291 290 290 291 291 291 291 291 292 292 291 292 293 293 293 294 294 294 294 294 293 293 293 292 291 291 291 291 291 291 290 290 292 293 291 293 293 292 290 289 288 287 286 285 284 284 285 286 286 283 280 280 279 281 283 283 283 284 285 285 285 288 290 291 291 291 290
287 287 287 287 288 287 288 288 288 288 289 290 291 291 291 291 291 291 290 290 290 290 290 291 291 291 291 292 292 291 292 292 293 293 292 292 291 290 290 290 291 292 292 293 292 292 291 292 291 291 292 293 293 294 294 294 291 290 290 289 288 287 286 286 286 285 282 283 282 281 276 280 282 281 282 283 283 283 284 288 290 290 290 290 290
286 287 287 287 286 286 287 287 287 287 288 289 290 290 290 290 291 289 288 288 289 289 289 290 290 291 291 291 291 291 291 291 291 292 292 291 290 288 288 288 289 289 290 291 292 292 292 293 292 292 293 293 293 292 292 292 292 291 289 289 288 287 285 283 282 283 280 282 282 281 279 279 281 280 281 282 283 281 283 284 288 290 290 290 289
285 285 285 286 286 286 286 286 285 286 286 288 288 289 289 290 289 287 287 287 287 287 288 289 289 290 290 290 290 290 290 290 291 292 292 291 289 288 287 287 288 288 289 290 291 292 292 292 293 293 294 294 294 295 295 295 293 292 289 287 285 286 283 281 282 282 281 281 281 282 281 278 280 280 279 280 280 280 281 282 285 288 289 289 288
283 284 285 286 286 286 285 285 285 285 285 286 288 288 289 289 288 287 287 287 286 287 287 288 289 289 289 288 288 289 289 290 290 291 292 290 288 287 287 287 287 287 287 289 289 290 291 291 291 292 292 293 293 294 294 294 294 293 290 285 287 286 282 283 281 282 282 280 280 283 280 279 279 280 277 277 278 279 280 281 284 285 287 288 288
283 285 285 285 284 284 285 285 285 285 285 286 287 288 288 289 288 287 287 286 286 286 286 286 288 288 288 288 287 288 288 289 291 291 291 290 288 287 287 287 286 286 287 288 288 288 288 288 288 288 288 289 290 290 290 291 291 290 290 289 288 286 284 283 283 282 279 278 280 283 279 279 276 279 276 274 271 273 276 280 282 283 284 284 285
Wind_Speed
5 6 5 5 5 5 4 5 5 4 4 4 4 4 4 3 3 3 3 3 3 4 4 4 4 4 4 4 4 4 4 4 4 5 5 5 5 7 7 6 5 6 8 7 7 7 10 8 9 9 9 8 8 8 7 7 8 9 7 8 9 9 9 8 8 8 8 8 8 8 9 8 9 8 8 8 8 8 8 8 8 6 2 3 4
5 5 6 6 5 5 5 5 5 5 5 4 4 4 4 4 4 4 4 4 4 4 4 4 5 5 5 4 5 6 4 4 5 5 5 5 5 6 10 6 7 6 7 8 11 8 10 8 10 9 9 9 10 11 8 8 11 12 8 10 9 10 10 10 10 10 9 9 9 9 9 9 8 9 8 8 8 8 7 4 3 4 8 5 1
6 7 6 5 6 5 5 5 5 5 5 5 4 5 4 4 4 4 4 4 4 4 4 4 4 5 5 5 5 5 5 3 5 4 6 5 5 5 7 7 7 7 5 8 11 9 11 10 10 10 9 11 8 11 12 10 11 10 10 10 11 11 11 11 11 10 10 10 10 10 9 9 9 9 9 9 8 8 7 6 6 2 4 4 3
7 7 7 7 6 6 5 5 5 5 5 5 5 5 5 4 5 5 4 4 4 4 4 5 5 5 5 6 5 6 6 4 5 6 6 6 5 4 6 6 6 7 7 7 11 11 13 12 11 12 10 12 12 12 12 10 10 11 11 12 12 12 12 12 12 12 11 11 11 11 11 10 10 10 9 9 9 9 8 8 6 4 1 5 5
7 7 7 7 7 6 6 5 5 5 5 6 6 5 4 4 5 4 4 5 5 5 4 5 6 5 5 5 5 7 5 6 6 7 6 5 6 6 5 7 7 8 9 8 10 12 14 14 15 14 13 14 14 14 14 13 12 12 12 13 13 13 13 13 13 13 14 13 13 12 12 12 11 11 11 10 10 10 9 8 8 8 4 5 3
8 7 7 8 8 7 5 5 5 5 5 4 5 5 5 5 5 5 5 5 5 5 5 6 6 6 5 5 5 5 6 8 6 7 6 7 7 6 5 4 6 6 7 9 10 10 11 12 17 16 15 16 15 14 15 14 15 14 13 14 14 14 14 14 14 14 14 14 14 15 14 14 13 13 12 12 11 10 10 10 8 6 7 5 5
8 8 8 8 8 8 7 7 6 5 5 5 5 5 5 6 6 5 5 6 6 6 7 7 6 6 6 5 5 5 4 5 5 3 2 4 6 6 4 3 4 5 6 7 8 12 12 11 14 18 17 16 16 16 16 15 16 16 16 16 15 15 15 15 14 14 15 15 15 14 13 13 13 13 12 11 11 11 10 9 9 10 8 7 7
8 8 8 9 9 9 8 7 6 5 5 5 4 6 6 6 6 6 6 7 7 7 6 7 6 6 5 5 4 4 4 4 4 4 4 4 4 3 2 3 3 4 4 6 7 10 16 15 13 16 14 17 18 17 17 17 17 17 17 17 17 17 17 16 16 16 16 16 16 16 16 15 15 14 14 14 13 12 12 12 11 11 10 8 8
10 10 10 10 9 7 6 6 6 6 6 6 6 7 7 6 7 7 7 6 6 8 7 6 6 6 4 4 3 2 3 3 4 4 3 4 4 4 3 4 4 4 4 5 6 6 11 17 15 15 14 16 19 18 19 18 19 19 19 19 19 18 19 19 18 19 18 17 17 17 16 17 18 16 15 15 15 14 14 13 13 11 11 11 9
12 11 10 10 10 9 8 8 8 7 8 7 7 7 7 7 7 7 6 7 7 7 7 6 5 3 2 2 2 1 3 3 4 2 3 4 4 5 4 4 4 5 5 4 5 6 5 10 17 15 14 14 17 20 20 20 20 21 21 21 21 20 20 19 20 20 19 19 19 19 19 19 19 17 17 17 16 16 15 15 15 14 14 13 12
10 10 10 8 8 8 9 9 8 8 9 8 6 7 8 8 7 6 6 7 7 7 6 4 2 1 2 2 1 3 3 3 2 3 3 4 4 5 3 5 5 5 5 5 5 6 6 4 5 8 10 14 15 20 21 22 20 22 22 22 22 21 21 22 22 22 21 20 20 20 19 19 19 18 20 19 19 18 17 17 17 17 16 15 14
7 7 8 9 9 8 8 6 5 5 7 8 7 7 8 7 7 7 7 6 6 3 2 2 0 2 3 3 3 4 5 4 5 5 4 5 6 5 6 5 6 6 6 6 6 6 6 7 6 6 9 12 16 16 19 19 18 22 24 24 24 24 23 23 23 23 22 21 21 20 19 20 20 20 20 21 20 19 20 18 18 18 18 17 17
10 10 11 9 9 10 8 7 7 9 10 10 10 7 7 7 6 6 8 6 5 5 3 2 1 4 3 5 6 6 7 8 8 6 7 7 6 7 7 6 7 6 6 6 7 7 7 7 7 7 7 8 10 15 17 18 16 20 23 24 25 25 25 25 25 25 25 24 22 22 22 21 21 21 21 21 21 21 20 20 20 19 19 18 18
9 12 10 9 8 8 10 10 9 9 10 10 9 6 6 7 6 5 4 6 6 6 5 5 4 6 5 4 4 5 9 9 9 10 9 7 7 7 8 9 8 7 6 7 7 8 8 8 8 8 9 8 8 8 11 14 15 19 22 26 27 26 27 27 25 26 25 26 26 24 24 21 22 22 21 21 21 21 20 21 21 20 20 19 19
8 6 7 6 6 8 8 6 6 7 7 7 5 5 6 7 8 6 4 5 6 4 7 9 6 3 1 4 7 6 3 4 7 10 9 10 8 10 10 9 10 8 6 6 8 9 8 8 9 10 10 10 8 8 8 12 15 18 20 21 24 28 28 28 28 27 26 26 25 25 25 24 23 22 22 22 22 22 21 21 22 22 21 21 19
9 10 9 9 9 8 6 4 4 4 6 8 7 7 7 7 7 7 6 5 5 6 6 7 7 6 2 6 1 1 9 7 5 7 11 11 10 11 8 8 8 8 6 7 8 8 9 9 11 11 11 10 9 9 9 8 13 17 19 21 21 23 28 30 30 28 27 27 28 27 26 26 25 24 24 24 23 23 23 22 22 22 21 20 20
9 8 8 9 9 9 9 8 7 8 6 6 7 9 9 8 7 7 8 9 9 7 4 5 8 8 6 2 1 2 7 6 6 7 5 7 10 10 9 9 9 9 7 9 10 9 9 11 11 11 12 12 11 10 10 11 10 10 14 19 21 22 25 29 33 31 29 29 29 29 29 27 26 26 26 26 26 25 24 23 22 22 22 22 21
8 10 11 9 9 8 8 7 7 7 8 8 9 8 8 8 8 8 9 9 9 7 6 4 8 9 10 10 8 8 4 1 3 6 3 6 6 9 9 10 9 9 8 10 10 10 10 12 13 12 12 12 11 11 11 11 11 11 11 13 20 23 25 26 32 36 35 31 28 30 29 28 27 28 28 28 27 26 25 24 24 23 23 22 22
8 6 6 6 6 6 6 6 6 6 6 6 7 7 7 8 7 7 8 7 8 9 10 6 3 7 8 10 11 8 5 5 9 7 11 2 2 4 7 8 8 10 11 10 10 10 10 12 13 14 12 11 11 12 11 12 15 16 18 21 23 24 25 26 27 30 36 35 32 30 30 31 30 29 29 30 28 28 28 26 25 24 23 23 22
7 8 8 7 6 6 6 7 7 8 7 8 8 9 9 7 9 8 6 7 9 10 10 7 8 6 7 8 10 11 9 8 8 9 11 12 11 6 6 6 6 9 11 10 10 11 12 12 13 13 12 12 12 11 12 13 13 14 14 22 23 22 24 26 27 27 28 32 38 33 30 32 33 31 31 33 30 29 29 27 26 26 25 24 24
5 6 6 6 5 5 6 6 6 7 5 5 6 6 6 5 6 5 6 8 8 9 8 8 8 8 5 8 7 9 7 9 10 9 9 10 14 10 13 7 8 9 9 10 10 10 11 13 13 13 12 12 12 13 13 12 12 13 14 23 25 26 25 24 26 28 27 28 28 31 33 32 33 33 32 31 30 30 29 28 27 27 26 26 24
5 6 6 6 5 5 5 6 5 5 5 7 7 8 8 8 8 8 10 10 8 9 11 10 8 8 9 5 6 5 6 7 9 8 9 10 15 11 10 12 14 9 9 10 10 11 11 11 13 13 13 13 13 13 13 13 13 12 16 22 23 26 27 26 26 27 28 28 29 28 30 34 33 34 33 30 31 31 30 29 28 28 28 28 26
5 5 5 6 6 6 5 4 4 5 4 2 3 4 6 8 9 9 9 9 7 9 11 10 9 9 8 8 8 8 8 9 10 7 9 9 9 11 11 13 14 14 12 11 10 11 12 11 12 12 13 13 14 14 13 14 16 17 21 22 21 23 24 26 26 27 28 29 30 29 27 29 30 33 31 31 31 31 31 30 30 30 29 26 27
5 6 6 6 6 6 6 6 5 5 5 4 3 4 4 3 4 4 5 7 8 8 8 9 10 9 9 6 7 6 8 9 4 6 8 10 10 14 13 13 11 11 9 7 10 11 11 12 12 14 14 13 13 13 14 14 15 23 21 23 21 23 25 27 28 26 28 28 28 29 27 30 29 29 27 31 33 34 32 31 31 30 28 28 27
5 6 6 7 6 5 6 5 5 6 7 8 7 5 4 4 5 5 6 7 7 8 9 10 10 11 10 9 8 9 10 7 8 9 9 9 10 13 14 8 14 14 10 8 8 5 10 11 11 11 12 13 12 11 13 14 14 18 23 19 23 20 24 26 27 27 26 28 28 27 28 28 27 29 29 30 34 33 32 31 30 30 30 29 29
4 5 4 4 4 5 5 5 5 6 7 7 7 7 8 8 7 7 7 6 6 9 10 10 10 11 8 8 10 9 10 8 9 8 10 9 10 11 13 10 9 15 11 9 8 6 8 9 10 10 11 12 12 12 12 15 15 21 24 19 20 21 21 22 25 25 26 26 28 29 29 29 30 30 30 33 35 34 35 33 32 32 31 31 30
3 3 4 4 5 5 5 5 5 6 6 6 5 7 8 7 8 8 7 6 6 6 7 9 10 11 10 9 8 8 10 9 9 10 8 9 10 10 9 14 15 12 13 12 9 13 14 9 10 11 11 11 11 12 13 13 17 22 21 18 15 20 22 23 26 28 27 28 27 29 30 29 28 30 31 31 35 37 38 40 37 35 33 31 31
3 3 3 3 4 5 5 6 6 6 6 6 6 7 6 6 7 7 8 3 5 7 6 7 9 10 11 11 10 11 9 9 8 8 8 9 9 8 8 11 13 19 14 14 13 13 8 11 6 12 11 11 11 11 13 14 12 17 20 14 13 14 22 23 27 27 28 27 28 28 30 30 30 27 29 30 30 31 33 34 35 32 32 28 26
3 3 3 3 3 4 4 4 5 6 6 6 5 5 6 6 6 6 7 6 6 6 6 7 8 8 7 8 8 8 7 7 7 7 8 7 8 8 8 10 9 12 16 17 20 11 11 7 10 5 11 11 10 9 11 10 13 15 12 12 13 14 18 25 26 28 28 28 28 28 30 30 30 30 30 30 30 28 28 29 30 27 25 28 27
3 3 3 3 3 3 4 4 4 5 6 6 5 5 5 6 6 7 6 6 6 6 6 6 7 5 7 7 7 8 8 8 9 8 8 9 9 9 9 9 8 12 13 15 22 13 9 8 8 8 5 9 8 9 9 11 14 16 12 11 12 13 20 23 24 27 26 27 28 30 30 31 28 29 31 29 29 27 26 29 27 22 22 27 27
3 3 3 2 2 2 3 3 4 4 5 5 5 6 6 6 6 6 6 5 5 6 6 6 6 6 6 7 7 9 8 8 8 8 8 8 9 8 8 8 9 10 12 12 16 23 4 12 7 6 6 6 8 9 9 9 10 14 12 11 11 15 20 18 22 22 24 25 26 28 29 32 34 30 28 30 26 24 24 22 20 20 21 19 18
3 3 3 3 3 3 3 3 4 4 5 5 4 4 5 6 6 5 5 5 6 7 6 6 5 6 7 8 8 8 8 7 7 8 9 8 8 7 7 8 10 10 12 13 15 25 15 8 13 10 9 8 7 8 8 7 9 12 10 10 12 15 12 11 17 21 22 24 26 27 28 29 32 32 25 23 24 24 22 23 23 22 21 19 23
2 3 3 3 3 3 3 3 4 4 5 5 4 4 5 6 6 6 6 6 7 7 6 8 7 7 8 9 10 10 9 9 8 7 8 8 7 9 9 9 10 8 9 12 15 20 20 9 10 12 9 8 8 6 9 9 8 8 10 11 10 9 10 10 11 18 21 22 24 25 27 28 29 27 25 23 21 23 25 23 23 23 24 23 25
3 3 3 3 3 3 3 3 4 4 5 5 5 5 5 6 7 5 6 7 8 8 7 8 8 7 8 9 10 10 8 10 10 10 10 9 8 9 9 9 11 10 10 12 15 16 22 18 9 9 12 5 12 6 9 11 11 8 10 9 8 8 9 10 10 10 16 20 22 24 26 25 27 26 23 24 25 25 23 25 23 24 22 23 23
3 3 3 3 3 3 3 3 4 4 4 4 4 5 5 6 7 7 7 8 9 9 8 9 9 8 8 9 11 10 8 9 10 10 10 10 9 10 11 9 11 12 10 12 13 16 20 20 16 11 12 10 11 12 10 9 10 8 10 10 10 9 9 10 10 8 11 18 21 23 24 27 28 27 26 25 23 27 25 27 26 23 24 24 25
3 3 3 3 3 3 3 3 3 3 4 4 4 5 6 6 7 8 7 8 8 8 9 9 9 9 9 9 11 9 8 9 10 10 10 9 10 10 11 10 11 13 11 10 13 14 15 18 19 13 10 11 12 7 6 5 7 7 9 9 8 9 9 9 9 9 9 16 20 22 24 25 26 28 30 24 22 24 23 24 23 21 26 23 22
3 3 3 3 3 3 3 4 4 4 4 4 5 5 5 5 6 7 7 7 7 9 9 9 9 9 10 10 11 9 9 10 11 10 10 11 10 10 11 10 11 12 10 11 12 13 15 17 19 16 11 11 12 11 4 6 7 8 8 9 9 10 9 7 6 7 10 19 20 22 22 24 25 28 28 26 23 22 21 23 24 27 25 24 24
3 3 3 3 3 4 4 4 4 4 4 4 5 5 6 6 6 6 6 7 7 7 8 8 9 9 9 10 10 9 9 11 12 11 10 12 10 11 12 11 11 11 12 12 11 13 14 16 17 18 15 13 12 12 7 7 9 9 8 8 7 7 6 8 9 8 7 8 9 11 15 20 25 27 29 28 23 23 24 22 26 26 22 24 25
3 3 2 2 2 3 4 4 4 4 4 4 5 5 5 6 6 6 6 7 7 7 7 8 8 9 9 10 10 10 11 12 12 12 11 11 11 12 12 12 12 12 12 12 11 12 14 15 15 16 16 14 13 14 8 8 10 11 11 9 8 6 7 9 10 9 8 9 10 14 13 13 15 16 20 23 27 27 23 25 30 28 23 22 21
2 2 2 3 3 3 3 4 4 4 4 4 5 5 6 6 6 6 6 7 8 8 8 8 9 9 10 10 10 11 11 12 11 12 11 12 11 12 12 11 12 13 12 12 11 12 13 13 14 15 13 15 13 11 5 3 6 7 7 8 13 11 9 9 11 10 7 8 8 8 12 14 15 20 23 21 23 23 23 24 26 25 22 20 20
4 3 4 4 4 4 3 3 4 3 4 4 3 3 5 7 7 8 8 8 9 10 10 10 10 10 10 10 11 11 13 15 17 16 15 13 10 12 13 10 11 12 12 11 11 11 11 12 14 13 13 14 14 12 10 9 12 13 7 9 12 11 6 6 8 9 8 8 8 8 10 10 11 11 12 13 16 21 20 22 20 25 21 21 21
4 4 4 4 4 4 5 5 4 4 4 4 5 8 8 7 8 7 8 9 9 10 10 11 11 11 11 11 12 17 18 19 19 20 21 20 20 17 16 13 13 12 12 12 12 11 11 12 13 14 14 16 15 14 12 14 10 6 8 8 11 10 7 8 7 7 7 9 8 11 11 9 10 11 11 13 12 16 13 16 14 16 20 24 24
4 4 4 4 4 4 5 5 6 5 5 5 9 10 11 13 9 9 9 9 9 10 11 11 13 13 11 12 12 14 14 15 16 21 21 22 21 23 25 25 20 16 13 14 14 12 11 12 13 14 14 17 18 15 13 12 8 10 10 9 10 8 9 9 13 4 8 11 11 10 10 9 10 12 11 11 10 11 11 11 17 22 23 25 25
4 4 4 4 5 5 5 5 6 6 6 9 12 12 12 13 12 10 10 9 10 10 11 12 12 12 13 12 11 10 10 12 12 13 15 19 21 22 24 24 23 24 23 19 16 14 13 13 13 15 15 16 17 14 13 11 10 7 8 9 10 11 11 12 11 12 5 13 11 11 12 7 9 10 9 10 9 10 12 15 24 24 26 25 25
5 5 5 5 5 6 5 6 7 7 7 9 12 13 13 14 15 13 10 10 10 11 11 12 13 13 13 12 13 12 10 14 13 12 13 15 18 22 22 23 24 24 23 25 25 20 14 15 16 18 16 16 16 16 14 12 7 10 8 9 10 10 11 12 13 11 7 13 10 10 11 9 10 11 10 9 7 7 11 19 26 27 27 27 26
5 6 5 7 6 6 6 7 8 7 8 10 13 14 14 16 16 14 11 12 12 13 13 13 13 14 14 13 13 14 13 12 11 12 12 13 14 13 13 12 12 15 19 23 25 26 23 18 18 19 20 17 17 16 14 9 8 11 10 11 10 12 12 15 15 15 6 11 14 11 8 10 9 9 11 7 7 8 8 15 25 26 25 25 24
4 4 5 5 6 5 8 8 8 9 7 12 13 14 14 16 17 14 11 11 11 12 13 13 14 15 15 14 14 16 16 14 12 12 13 14 13 13 13 13 13 13 14 14 13 12 14 16 18 20 21 20 19 18 16 14 13 11 11 12 13 15 14 11 9 5 3 9 10 9 13 8 7 9 11 9 8 9 7 16 25 25 25 25 24
4 4 4 4 6 6 5 7 9 10 8 10 13 14 15 15 17 11 9 11 12 12 13 14 14 14 13 13 14 14 16 16 17 18 16 14 13 15 16 15 14 14 14 14 16 16 16 16 15 16 17 19 21 19 18 15 13 11 9 9 8 7 7 7 12 7 7 8 13 12 8 7 10 12 11 8 8 7 7 9 21 25 25 24 24
4 5 5 5 4 5 6 6 8 10 10 10 12 15 16 16 12 9 10 10 11 13 14 14 14 14 13 13 13 14 15 16 19 20 19 18 13 16 16 16 15 15 16 13 15 19 23 25 26 27 28 27 27 28 27 28 20 13 9 9 13 9 8 12 13 9 10 7 10 13 9 8 8 9 8 7 9 9 9 10 11 22 24 24 24
6 5 5 6 5 5 7 9 9 10 12 12 12 12 15 16 13 10 10 11 12 13 14 14 14 13 14 18 16 15 16 17 21 22 22 17 14 14 15 16 18 18 17 13 10 12 18 22 25 27 27 27 28 29 29 27 25 19 11 13 14 7 10 12 12 12 7 7 10 12 10 9 7 9 7 4 4 4 8 7 9 12 22 21 24
6 5 6 7 9 8 7 9 13 12 11 13 14 13 15 16 14 9 10 11 13 13 13 15 15 14 14 14 18 18 17 19 24 23 23 18 13 12 14 14 17 18 17 14 13 14 12 12 12 13 15 19 19 17 17 24 25 21 15 13 11 10 11 13 13 9 6 9 10 13 11 7 11 9 11 7 4 2 1 7 9 9 9 8 12
Wind_Direction
200 199 196 200 196 196 201 201 196 198 193 204 191 203 207 202 199 206 210 221 216 214 228 223 223 226 232 222 228 233 231 230 233 212 210 209 184 185 218 251 245 197 208 225 225 232 180 225 214 213 209 203 202 191 189 192 202 222 187 190 187 183 180 181 184 182 183 180 178 176 173 172 170 168 166 163 159 159 157 160 150 137 131 94 100
208 211 203 200 198 193 204 208 203 201 194 205 198 207 207 205 205 208 212 219 226 223 224 228 229 241 231 236 221 234 232 228 235 227 217 217 212 175 192 225 233 220 229 217 225 239 208 233 215 222 243 206 187 198 198 194 197 201 198 197 198 197 192 193 192 192 191 191 189 188 186 183 181 180 178 177 172 169 171 175 142 155 156 171 111
220 216 217 207 204 196 204 205 208 205 199 205 199 208 209 210 206 211 213 220 224 226 216 241 232 235 236 240 233 232 242 228 236 228 228 222 223 203 181 208 235 249 259 260 243 238 220 239 221 237 227 234 219 208 190 205 200 204 203 205 207 205 202 202 199 200 201 199 198 197 196 195 193 192 190 189 187 184 183 186 170 279 181 139 183
222 219 224 219 213 203 202 204 209 210 205 205 199 199 207 207 207 215 224 225 230 226 217 235 234 231 227 225 236 238 235 232 232 227 231 237 231 218 177 197 219 249 254 264 228 218 222 228 216 235 227 230 223 227 223 230 216 215 214 214 211 213 209 208 207 206 206 208 207 206 205 202 201 202 201 198 198 198 192 194 187 197 207 160 180
224 221 222 226 225 210 203 208 212 213 213 213 201 197 206 206 200 204 215 222 229 230 225 234 241 238 230 223 227 241 255 244 236 238 235 243 242 233 192 187 199 215 245 262 240 223 231 236 211 230 225 230 235 227 232 228 230 226 223 223 219 216 214 214 214 212 210 209 209 211 209 210 207 205 208 207 208 207 209 208 200 195 222 197 207
235 221 220 228 230 223 213 215 212 217 214 203 202 203 207 207 210 204 218 221 226 232 237 235 236 237 230 224 230 235 233 246 249 240 239 235 243 250 251 195 189 198 206 227 245 248 242 239 210 233 234 230 238 237 236 234 233 233 226 226 226 222 218 217 218 219 221 219 216 212 210 210 214 215 213 213 212 217 206 215 218 198 201 223 211
230 232 225 227 228 230 223 234 224 215 210 209 214 217 221 217 210 211 214 220 230 231 233 238 235 230 228 222 219 226 233 235 232 241 243 233 229 238 262 281 234 204 193 202 220 239 247 251 236 232 235 237 235 233 237 233 236 237 227 226 228 227 222 222 221 225 228 224 224 226 226 223 218 217 224 225 221 219 225 227 217 220 212 219 227
228 231 234 232 234 235 228 223 219 200 210 207 204 223 223 222 216 211 218 223 222 227 226 231 233 233 226 230 223 215 219 226 234 240 238 238 239 238 238 263 288 263 230 217 210 214 227 242 249 253 245 231 236 234 237 237 233 231 235 228 228 231 231 224 219 220 221 226 228 225 225 224 228 225 222 223 226 223 225 226 231 227 224 223 231
216 221 236 240 239 231 228 221 207 200 198 207 210 220 223 218 221 213 220 231 225 232 231 227 230 232 227 218 212 198 229 230 240 244 236 237 250 248 245 245 258 296 286 254 238 233 212 224 237 242 234 227 233 237 239 243 243 239 231 232 230 228 228 226 221 221 219 221 224 227 226 226 225 227 225 226 227 227 226 225 232 233 228 231 231
212 215 226 237 239 240 232 219 217 216 227 213 218 218 223 219 220 213 214 228 237 235 232 226 225 207 186 209 222 240 249 244 239 248 256 254 245 249 244 247 238 243 255 261 259 243 240 216 222 229 236 231 227 227 234 242 245 243 237 232 230 231 228 227 226 223 219 215 218 218 220 228 228 227 227 224 225 226 229 228 229 231 228 225 228
211 211 225 228 231 234 232 227 220 223 227 227 217 214 216 213 215 219 219 229 238 247 243 224 186 154 222 223 210 236 244 250 269 254 240 245 253 259 254 244 243 233 236 245 245 253 249 264 225 223 232 232 228 226 227 235 243 243 242 238 236 232 229 230 225 222 221 223 222 221 219 226 229 228 227 227 227 226 226 227 225 224 228 227 225
219 225 229 228 229 228 229 231 239 232 223 221 214 214 213 213 220 226 228 223 224 232 206 198 117 234 251 264 254 254 242 239 239 239 239 237 237 237 242 240 239 236 231 229 239 246 251 252 255 234 231 232 229 229 227 230 236 240 241 243 238 232 233 232 230 226 222 218 221 222 224 227 227 227 228 228 227 226 228 228 228 226 224 226 224
205 213 224 224 225 230 222 212 212 226 226 222 218 217 216 214 216 215 224 219 215 198 202 137 246 268 218 244 253 224 233 228 233 231 231 233 231 236 234 233 230 230 228 227 236 238 247 247 245 249 242 233 227 228 231 232 235 238 243 241 242 241 237 231 231 229 224 225 225 224 222 226 231 231 230 230 229 229 228 228 227 227 226 225 226
212 220 223 219 210 217 218 218 213 217 232 236 231 206 206 212 198 203 188 215 235 196 179 136 226 234 265 275 247 230 219 208 218 228 223 225 226 226 233 230 223 227 226 229 231 230 236 241 244 243 242 247 240 221 226 233 235 237 236 238 242 243 241 239 234 232 230 229 226 222 220 225 228 234 235 235 234 233 230 231 229 230 229 227 227
218 218 237 231 224 223 233 250 232 206 214 230 228 206 202 204 191 198 185 212 238 215 185 183 229 171 88 11 280 291 221 230 228 239 221 217 210 222 221 219 225 219 218 220 232 233 230 228 235 238 240 239 243 245 231 226 228 229 235 241 245 242 243 243 239 237 230 231 228 225 224 225 228 228 231 234 236 236 234 233 233 232 231 230 230
220 212 212 216 217 227 231 223 224 199 213 219 214 214 204 205 205 204 201 223 191 223 195 191 206 122 252 214 312 20 295 266 242 220 207 212 209 222 209 221 225 225 214 219 226 223 227 225 230 234 237 238 238 241 244 242 234 230 232 236 239 243 241 242 244 245 239 234 230 223 216 221 224 226 228 229 231 233 235 235 235 235 234 233 233
245 216 194 212 221 225 224 218 217 216 203 207 212 219 218 212 203 203 198 221 233 222 202 188 201 206 210 112 246 253 233 280 324 277 185 206 220 220 223 224 216 214 212 226 229 224 225 229 230 231 233 232 231 232 237 240 242 238 234 233 236 238 244 244 246 246 244 239 235 232 226 220 218 223 228 230 229 229 233 233 234 235 236 236 236
250 252 241 234 225 219 223 224 216 213 209 212 221 221 214 209 198 210 225 217 227 230 235 185 211 215 226 233 233 265 291 107 43 300 121 213 210 212 224 223 221 221 218 228 220 222 221 231 234 234 234 233 231 232 233 238 239 237 235 233 230 235 237 241 243 247 250 251 241 235 231 225 223 226 226 228 230 229 228 231 232 232 235 235 236
237 242 253 243 233 218 218 218 215 209 202 206 216 226 219 205 195 200 211 207 210 233 235 219 182 233 227 239 253 256 237 272 264 291 288 203 219 243 233 226 225 230 234 231 221 222 228 229 236 239 237 233 234 232 231 235 235 237 237 239 235 231 234 236 237 240 245 249 251 243 234 229 227 225 225 226 227 230 229 227 229 230 232 235 235
255 255 252 227 198 211 210 211 215 216 200 204 213 220 232 227 212 196 195 202 211 220 234 215 203 228 194 229 238 249 256 248 247 256 272 287 273 262 251 252 225 227 232 230 226 222 229 233 236 236 237 235 234 232 230 232 234 235 239 240 243 239 232 232 234 235 238 244 248 251 243 236 232 230 225 225 224 227 228 226 227 227 227 230 232
274 287 294 298 295 281 276 279 273 268 250 245 230 227 227 225 212 195 201 218 211 219 227 227 215 231 183 222 224 235 236 238 254 247 254 268 273 263 273 250 235 240 236 229 233 230 230 235 237 236 237 235 233 233 232 232 233 234 235 238 239 241 239 235 232 230 233 237 242 245 250 244 238 234 229 230 228 225 225 226 225 228 228 227 229
255 257 267 275 274 267 258 259 271 276 258 234 212 213 220 224 218 216 212 207 207 212 222 230 234 238 232 214 206 221 237 249 241 242 251 238 261 268 274 282 272 248 224 237 231 237 237 233 235 236 235 234 229 231 230 232 233 235 236 236 237 239 240 240 239 235 231 232 236 240 243 249 247 241 237 235 235 232 229 222 222 225 227 225 224
252 255 253 254 251 247 247 244 252 252 258 285 280 246 235 235 233 216 208 202 208 216 229 234 233 236 227 225 231 215 221 231 240 224 229 246 254 258 260 256 261 272 251 244 237 234 233 231 233 233 230 228 231 232 232 233 233 236 237 238 236 236 237 239 240 240 238 234 234 236 238 241 249 252 245 239 235 234 232 229 224 224 226 224 222
261 264 258 253 254 255 255 256 251 253 258 250 235 243 248 244 245 239 232 223 227 229 235 237 233 241 240 220 229 225 229 234 233 227 233 248 255 270 273 280 275 254 274 251 236 235 226 232 228 231 229 231 230 232 235 234 237 235 239 240 238 236 236 237 238 240 241 240 237 237 236 238 240 244 241 244 242 237 235 231 229 229 225 221 221
249 252 257 254 255 257 255 256 257 257 262 263 263 255 239 225 231 234 227 225 220 221 230 234 225 231 234 234 235 235 241 240 247 249 252 258 257 271 273 274 277 281 271 267 264 226 220 232 227 231 230 233 235 233 232 234 237 235 236 242 238 236 237 240 242 242 242 243 242 239 237 237 236 238 238 237 246 244 236 235 231 228 224 220 222
245 239 239 247 250 251 264 268 270 270 266 263 263 261 261 259 243 228 231 234 220 222 229 232 232 234 232 238 238 242 247 246 247 245 248 253 259 263 282 278 261 278 282 267 260 259 240 222 229 229 226 228 230 228 233 234 237 240 237 238 241 236 237 236 240 242 243 243 243 242 241 240 239 238 238 236 237 241 242 235 230 230 226 224 223
287 292 288 274 279 276 268 269 275 272 267 265 264 266 267 266 266 263 249 220 218 225 232 233 240 241 237 239 247 245 249 247 239 245 251 254 260 266 273 287 288 269 277 276 259 242 261 255 211 227 224 227 225 227 230 236 237 236 237 238 240 239 236 234 237 239 241 242 243 242 242 242 241 241 239 239 239 239 236 240 238 234 234 231 228
307 320 324 306 293 293 291 279 273 275 280 282 279 273 270 269 271 272 272 269 242 242 247 238 242 244 244 242 242 246 248 251 249 253 252 254 258 263 264 270 279 292 288 281 277 269 252 265 234 216 225 225 229 231 230 235 241 238 238 238 237 235 234 233 236 238 239 241 242 244 244 244 244 241 240 239 238 239 240 240 241 236 234 236 236
306 319 303 300 292 291 297 300 296 284 277 270 274 280 286 284 280 280 279 285 281 265 256 252 251 249 248 247 250 256 253 253 255 253 253 253 252 254 250 253 263 274 288 292 282 273 278 209 267 223 206 224 231 225 235 233 234 234 236 232 234 235 233 233 233 237 240 242 243 244 243 243 242 240 239 239 239 238 239 238 238 233 228 228 229
308 300 298 289 287 278 275 281 282 283 281 282 278 277 277 273 272 271 270 267 267 267 261 260 262 258 253 249 247 256 255 256 255 252 249 247 245 243 246 244 245 254 268 280 286 275 276 263 235 268 189 224 219 232 223 231 229 228 233 231 231 233 235 233 230 236 240 243 245 246 243 241 237 238 239 238 238 237 233 234 232 221 216 219 221
309 315 304 309 310 318 311 301 297 297 295 287 285 282 281 280 280 279 276 272 268 269 272 268 260 253 257 261 260 262 263 263 262 260 256 250 249 245 236 238 237 245 262 269 281 281 188 274 258 245 248 217 219 228 229 233 235 231 235 234 234 235 235 236 236 236 237 240 241 243 244 245 243 239 235 233 230 222 216 208 206 208 209 199 173
345 333 318 323 327 326 326 317 308 305 298 292 289 289 284 278 279 277 274 276 278 275 274 270 272 265 262 261 258 259 260 258 256 257 256 250 248 244 243 249 249 242 249 254 254 272 268 245 276 266 256 255 225 230 241 241 243 236 240 237 237 239 240 242 238 235 236 238 240 242 243 244 245 241 234 224 214 210 208 208 205 203 201 194 207
350 337 331 332 334 339 332 318 308 301 298 297 299 295 286 281 279 282 291 289 281 275 272 271 267 268 266 266 264 263 264 263 262 262 256 256 252 252 251 246 249 243 243 253 259 269 279 252 260 274 273 273 264 207 236 238 235 232 230 235 237 235 234 236 238 235 235 236 238 241 242 242 245 247 238 229 219 212 209 207 209 209 206 204 206
11 347 336 340 332 328 322 314 307 303 301 300 294 289 283 282 281 283 283 281 279 275 272 270 266 262 266 267 267 268 265 265 264 260 259 258 249 250 245 240 247 243 226 240 256 265 276 284 258 267 276 231 263 218 224 240 241 231 233 232 234 228 230 233 235 238 230 234 236 238 240 240 244 244 242 226 220 216 209 212 207 209 197 206 202
0 359 349 338 330 323 318 310 307 302 300 298 298 293 288 283 280 279 277 278 277 277 275 271 271 268 264 260 264 265 265 262 259 258 259 256 255 250 253 243 247 247 236 231 247 259 267 274 276 269 267 260 251 261 242 238 247 235 237 237 230 231 231 233 237 238 227 231 235 237 239 239 241 244 242 234 219 220 218 219 215 208 200 203 205
2 360 346 338 328 317 301 291 281 282 276 270 268 264 266 269 273 275 277 275 274 273 272 273 272 268 263 266 263 264 265 262 261 260 258 256 253 252 254 249 247 250 241 238 235 249 264 274 277 269 266 276 270 256 249 241 238 237 234 244 236 237 237 231 236 242 236 235 236 237 237 237 237 241 242 237 224 218 220 223 214 194 204 205 205
9 358 350 343 322 310 307 300 291 283 276 274 273 269 263 255 256 262 265 267 269 273 274 275 275 269 266 260 266 264 262 261 263 256 259 255 252 252 251 251 248 250 249 239 241 242 253 261 272 274 268 261 269 270 228 233 243 240 244 242 238 240 243 243 245 236 234 238 239 238 238 237 236 240 241 237 230 216 218 221 211 206 206 197 199
358 355 344 330 323 308 304 300 295 289 285 277 272 271 269 269 265 264 264 265 264 265 269 268 269 267 265 266 266 265 260 257 262 262 260 258 257 252 252 253 251 251 251 248 242 245 248 255 263 276 274 268 267 266 232 213 244 253 245 241 246 241 236 246 237 236 230 229 232 237 239 239 239 238 240 237 230 217 214 208 208 206 195 196 195
357 350 336 317 309 304 298 301 294 293 289 283 284 285 286 285 283 278 277 275 269 267 261 261 262 264 262 264 266 261 260 258 261 263 262 263 259 258 256 255 257 254 253 253 247 246 248 255 260 261 271 270 264 269 257 199 228 236 249 256 247 217 219 230 243 231 222 231 235 233 234 232 233 236 240 234 225 228 216 212 213 209 196 184 181
4 346 334 333 309 298 297 292 292 297 295 291 288 289 292 295 294 287 281 281 281 276 273 268 266 264 262 260 259 257 254 255 255 257 254 257 257 260 256 253 256 255 254 257 254 249 252 254 256 264 261 270 269 257 249 167 241 251 233 236 254 249 223 224 229 234 223 217 226 231 233 235 235 234 233 231 228 226 223 211 205 196 184 178 180
352 348 335 329 318 310 305 298 298 295 290 288 289 298 309 303 298 298 293 288 285 284 281 277 270 267 264 260 256 254 250 249 249 250 253 251 258 264 260 250 252 255 257 255 255 253 253 254 261 259 264 264 263 264 249 235 232 246 227 207 240 250 250 236 237 222 218 215 223 224 229 217 222 225 220 224 224 221 217 199 199 194 183 182 185
342 338 332 321 315 311 316 314 309 300 288 285 285 286 283 286 296 291 289 284 283 280 281 281 276 268 264 262 260 253 251 253 252 252 252 251 247 246 258 260 254 254 256 259 255 254 254 256 257 263 262 260 263 256 254 249 248 228 231 214 235 243 240 247 259 225 198 208 213 228 228 214 216 222 216 219 215 205 198 195 194 190 185 186 189
321 321 309 308 314 312 304 304 302 301 294 290 297 297 297 295 292 290 285 284 280 279 277 278 279 278 273 266 266 264 258 253 254 253 253 253 251 248 248 249 248 248 258 258 258 254 254 254 261 260 258 263 263 262 256 258 241 222 225 220 229 234 226 229 249 233 184 191 212 226 232 210 201 214 212 209 199 192 182 193 188 183 183 185 182
320 310 308 311 307 304 298 292 291 291 295 291 292 294 293 293 291 289 288 283 280 276 276 276 277 279 279 278 273 270 264 261 262 262 256 250 248 247 248 249 249 246 241 244 255 260 253 257 258 258 262 258 265 264 261 255 250 231 222 217 221 221 226 227 236 240 193 183 200 214 229 206 198 213 210 206 191 182 182 178 182 179 181 184 182
307 317 315 307 305 305 302 304 300 294 291 295 296 298 299 297 295 293 287 283 281 280 278 276 277 278 279 280 283 277 274 267 259 259 263 267 263 256 251 253 253 250 247 243 242 245 256 256 258 261 257 263 263 261 259 260 249 245 220 223 223 225 226 230 234 241 205 185 188 212 223 210 191 207 210 201 181 175 180 183 184 181 182 183 177
320 316 314 308 307 309 308 300 295 293 291 296 294 293 294 293 292 290 283 283 280 278 277 276 277 278 277 280 283 285 283 276 268 267 268 267 268 267 262 256 253 248 244 243 245 245 243 247 251 256 258 258 261 265 269 266 250 241 236 234 223 227 225 228 228 231 211 162 187 192 217 213 189 201 212 194 174 183 181 188 189 186 184 181 173
313 311 307 310 303 298 295 292 290 289 283 282 285 289 291 291 290 289 283 281 280 278 277 274 274 275 277 278 279 280 283 282 274 268 271 274 277 275 271 269 264 262 260 255 247 241 242 243 246 251 259 262 265 266 269 265 256 248 239 240 231 229 230 239 254 238 135 186 183 184 218 198 174 198 211 185 179 183 174 192 190 185 181 178 177
291 287 293 285 290 289 288 293 295 293 292 286 291 292 292 292 293 290 282 280 281 280 279 277 274 274 276 276 279 279 279 280 280 275 269 272 277 278 277 274 272 268 263 255 251 246 246 245 245 249 253 256 258 261 261 260 260 256 251 254 257 247 231 216 235 209 197 197 185 193 207 193 187 196 203 178 176 174 176 182 195 183 180 180 183
297 297 290 288 285 292 298 299 300 297 295 292 291 293 295 295 295 292 291 285 281 283 282 282 278 278 277 274 275 278 280 280 281 280 278 276 277 277 277 278 276 275 272 270 256 249 248 248 251 252 253 255 257 259 261 261 260 255 247 243 239 227 205 229 237 222 221 176 197 195 197 202 188 186 184 173 176 173 177 185 184 186 182 183 185
314 306 301 305 306 300 306 306 303 304 302 302 299 293 296 298 296 292 292 293 289 287 288 285 285 283 279 276 272 272 275 278 282 282 280 280 277 275 276 278 279 277 276 276 273 260 252 252 251 252 252 253 255 257 260 262 262 260 246 238 242 215 216 224 234 231 218 185 199 180 193 205 151 172 152 120 124 182 178 179 175 183 188 188 186
302 307 324 317 316 311 306 304 306 305 303 306 308 308 304 302 302 296 294 293 293 291 295 295 293 292 290 285 280 276 274 276 279 281 282 282 277 274 276 276 276 276 278 285 281 276 272 267 258 256 256 255 257 256 257 259 259 258 251 247 246 229 226 228 233 231 222 225 192 174 188 187 150 174 144 134 139 351 265 179 172 171 176 170 185